Regional Weather Roundup
Issued by NWS Little Rock, AR

Home | Current Version | Previous Version | Graphics & Text | Print | Product List | Glossary Off
Versions: 1 2 3 4 5 6 7 8 9 10 11 12 13 14 15 16 17 18 19 20 21 22 23 24 25 26 27 28 29 30 31

000
ASUS44 KLZK 220905
RWRLZK

WEATHER ROUNDUP FOR ARKANSAS
NATIONAL WEATHER SERVICE LITTLE ROCK AR
400 AM CDT SAT JUL 22 2017

NOTE: "FAIR" INDICATES FEW OR NO CLOUDS BELOW 12,000 FEET WITH NO
SIGNIFICANT WEATHER AND/OR OBSTRUCTIONS TO VISIBILITY.

ARZ001-003-010-029-221000-
NORTHWEST ARKANSAS

CITY           SKY/WX    TMP DP  RH WIND       PRES   REMARKS
FAYETTEVILLE   CLEAR     73  71  93 S5        29.96F
FORT SMITH     CLEAR     79  75  87 E5        29.91F
HARRISON       CLEAR     77  69  76 CALM      29.96S
BENTONVILLE    CLEAR     75  68  78 CALM      29.96S
ROGERS         CLEAR     76  70  82 S6        29.96F
SILOAM SPGS    CLEAR     75  68  78 S5        29.95S
HIGHFILL       CLEAR     74  71  91 S5        29.96S
$$

ARZ004-005-016-221000-
NORTH CENTRAL ARKANSAS

CITY           SKY/WX    TMP DP  RH WIND       PRES   REMARKS
BATESVILLE     PTCLDY    79  72  78 CALM      29.93S
FLIPPIN        CLEAR     79  68  69 SW6       29.90F
MTN HOME       CLEAR     75  72  90 CALM      29.92F
$$

ARZ040-041-221000-
WEST CENTRAL ARKANSAS

CITY           SKY/WX    TMP DP  RH WIND       PRES   REMARKS
MENA           PTCLDY    73  73 100 CALM      29.97F
MOUNT IDA      CLEAR     75  72  90 CALM      29.93F FOG
$$

ARZ009-017-025-026-028-221000-
NORTHEAST ARKANSAS

CITY           SKY/WX    TMP DP  RH WIND       PRES   REMARKS
CORNING        LGT RAIN  79  79 100 SW7       29.91S
JONESBORO      PTCLDY    82  78  88 SW10      29.91S HX  91
WALNUT RIDGE   CLEAR     79  73  83 S7        29.91S
BLYTHEVILLE    CLEAR     80  77  90 SW6       29.92S HX  87
$$

ARZ022-023-033-042-044-221000-
CENTRAL ARKANSAS

CITY           SKY/WX    TMP DP  RH WIND       PRES   REMARKS
LITTLE ROCK    PTCLDY    80  78  94 CALM      29.93S HX  88
N LITTLE ROCK    N/A     80  75  84 CALM      29.91S HX  85
JACKSONVILLE   CLEAR     77  77  99 CALM      29.92F
CONWAY           N/A     79  77  94 CALM      29.91S
SEARCY         CLEAR     76  76 100 MISG      29.94F FOG
HOT SPRINGS    CLEAR     80  77  90 CALM      29.94F HX  87
RUSSELLVILLE   CLEAR     76  75  97 CALM      29.92F
CLINTON        FAIR      75  73  94 CALM      29.94S FOG
$$

ARZ036-221000-
EAST ARKANSAS

CITY           SKY/WX    TMP DP  RH WIND       PRES   REMARKS
WEST MEMPHIS   PTCLDY    76  76 100 S5        29.92S
$$

ARZ050-053-066-070-073-221000-
SOUTHWEST ARKANSAS

CITY           SKY/WX    TMP DP  RH WIND       PRES   REMARKS
ARKADELPHIA    FAIR      75  74  96 CALM      29.94S
CAMDEN         PTCLDY    75  72  88 CALM      29.94S
TEXARKANA      CLEAR     78  75  90 S6        29.94S
EL DORADO      CLEAR     75  73  93 S3        29.94F
DE QUEEN       PTCLDY    76  76 100 CALM      29.92F FOG
$$

ARZ056-057-069-221000-
SOUTHEAST ARKANSAS

CITY           SKY/WX    TMP DP  RH WIND       PRES   REMARKS
PINE BLUFF     CLEAR     76  75  97 SE3       29.93F
STUTTGART      CLEAR     79  64  61 S5        29.94S
MONTICELLO     CLEAR     77  74  90 CALM      29.94S

$$






USA.gov is the U.S. government's official web portal to all federal, state and local government web resources and services.